User: anonymous   Login
Location: ??????
(33.3472°N, 35.4764°E)
Time: 07:20:43
(UTC+00:00)
Language:

Meteor 2-20 - Orbit

View from above orbital plane
View from above orbital plane
View from above satellite
View from above satellite

Ground track
Ground track

The orbit data is extracted from the following two-line orbital elements,

1 20826U 90086A   19290.74904689 -.00000015  00000-0 -27142-4 0  9997
2 20826  82.5252 337.4834 0013632  21.3763 338.7963 13.84241392467691
Epoch (UTC): 17 October 2019 17:58:37
Eccentricity: 0.0013632
inclination: 82.5252°
perigee height: 939 km
apogee height: 959 km
right ascension of ascending node: 337.4834°
argument of perigee: 21.3763°
revolutions per day: 13.84241392
mean anomaly at epoch: 338.7963°
orbit number at epoch: 46769

The dashed part of the orbit path shows where the satellite is in the earth's shadow,  

DLR